Regional Weather Roundup
Issued by NWS

Home | Current Version | Previous Version | Text Only | Print | Product List | Glossary On
Versions: 1 2 3 4 5 6 7 8 9 10 11 12 13 14 15 16 17 18 19 20 21 22 23 24 25 26 27 28 29 30 31 32 33 34 35 36 37 38 39 40 41 42 43 44 45 46 47 48 49 50
000
ASUS43 KTOP 301359
RWRKS

WEATHER ROUNDUP FOR KANSAS
NATIONAL WEATHER SERVICE GOODLAND KS
900 AM CDT SAT APR 30 2016

NOTE:  "FAIR" INDICATES FEW OR NO CLOUDS BELOW 12,000 FEET WITH NO
SIGNIFICANT WEATHER AND/OR OBSTRUCTIONS TO VISIBILITY.

KSZ001>006-013>018-027>032-041>047-301500-
NORTHWEST KANSAS

CITY           SKY/WX    TMP DP  RH WIND       PRES   REMARKS
GOODLAND       FOG       33  32  96 NW15      29.80R VSB 1/2 WCI  23
HAYS           CLOUDY    45  36  70 NW14      29.74R
HILL CITY      CLOUDY    42  39  89 NW17      29.76R
RUSSELL        LGT RAIN  46  45  96 NW9       29.72R FOG
$$

KSZ061>065-074>080-084>089-301500-
SOUTHWEST KANSAS

CITY           SKY/WX    TMP DP  RH WIND       PRES   REMARKS
DODGE CITY     CLOUDY    39  35  86 NW16      29.80R WCI  30
ELKHART          N/A     41  29  62 NW17        N/A
GARDEN CITY    CLOUDY    38  34  85 NW18      29.80R WCI  28
GREAT BEND     CLOUDY    45  37  76 W14       29.76R
LIBERAL        PTSUNNY   43  36  75 NW17      29.84R
$$

KSZ066>073-081>083-090>101-301500-
SOUTHEAST KANSAS

CITY           SKY/WX    TMP DP  RH WIND       PRES   REMARKS
CHANUTE        PTSUNNY   60  55  83 SW9       29.70R
COFFEYVILLE    PTSUNNY   60  56  86 SW14      29.73R
HUTCHINSON     CLOUDY    49  46  90 W16       29.74R
MEDICINE LODGE   N/A     45  41  86 W10       29.80R
NEWTON         CLOUDY    48  43  81 W14G22    29.73S
PARSONS        CLOUDY    60  57  89 SW9       29.72R
WICHITA INTL   PTSUNNY   50  45  83 W15       29.74S
WICHITA JABRA  CLOUDY    48  46  93 W17G25    29.73R
WICHITA MCCONL CLOUDY    48  46  93 W15G22    29.73S
WINFIELD       CLOUDY    51  47  86 W14       29.76R
$$

KSZ007>012-019>026-033>040-048>060-102>105-301500-
NORTHEAST KANSAS

CITY           SKY/WX    TMP DP  RH WIND       PRES   REMARKS
CONCORDIA      CLOUDY    48  46  93 N5        29.68S FOG
EMPORIA        CLOUDY    53  50  89 W12G17    29.68R
LAWRENCE       CLOUDY    60  60 100 SW5       29.63S FOG
MANHATTAN      CLOUDY    53  49  86 W9        29.67R FOG
OLATHE IND     CLOUDY    61  59  93 S9        29.65S
OLATHE EXE     CLOUDY    60  59  96 S8        29.64F
SALINA         CLOUDY    52  49  89 W14       29.70R
TOPEKA BILLARD MOSUNNY   59  56  89 SW8       29.63F
TOPEKA FORBES  PTSUNNY   60  55  83 W7        29.63F
$$




USA.gov is the U.S. government's official web portal to all federal, state and local government web resources and services.